TimeCST,TemperatureF,Dew PointF,Humidity,Sea Level PressureIn,VisibilityMPH,Wind Direction,Wind SpeedMPH,Gust SpeedMPH,PrecipitationIn,Events,Conditions,WindDirDegrees,DateUTC
12:53 AM,39.0,34.0,82,30.32,10.0,Calm,Calm,-,N/A,,Clear,0,2012-11-19 06:53:00
1:53 AM,37.9,33.1,83,30.32,10.0,Calm,Calm,-,N/A,,Clear,0,2012-11-19 07:53:00
2:53 AM,37.0,32.0,82,30.32,10.0,Calm,Calm,-,N/A,,Partly Cloudy,0,2012-11-19 08:53:00
3:53 AM,37.9,33.1,83,30.30,10.0,East,4.6,-,N/A,,Partly Cloudy,90,2012-11-19 09:53:00
4:53 AM,36.0,32.0,86,30.32,10.0,Calm,Calm,-,N/A,,Scattered Clouds,0,2012-11-19 10:53:00
5:53 AM,37.0,32.0,82,30.32,10.0,Calm,Calm,-,N/A,,Scattered Clouds,0,2012-11-19 11:53:00
6:53 AM,39.9,34.0,79,30.33,10.0,Calm,Calm,-,N/A,,Mostly Cloudy,0,2012-11-19 12:53:00
7:53 AM,45.0,37.0,74,30.33,10.0,Calm,Calm,-,N/A,,Mostly Cloudy,0,2012-11-19 13:53:00
8:53 AM,51.1,37.9,61,30.35,10.0,Calm,Calm,-,N/A,,Mostly Cloudy,0,2012-11-19 14:53:00
9:53 AM,55.9,37.9,51,30.35,10.0,Calm,Calm,-,N/A,,Mostly Cloudy,0,2012-11-19 15:53:00
10:53 AM,62.1,39.0,43,30.32,10.0,Calm,Calm,-,N/A,,Scattered Clouds,0,2012-11-19 16:53:00
11:53 AM,64.0,41.0,43,30.29,10.0,Calm,Calm,-,N/A,,Scattered Clouds,0,2012-11-19 17:53:00
12:53 PM,64.9,42.1,43,30.27,10.0,Calm,Calm,-,N/A,,Scattered Clouds,0,2012-11-19 18:53:00
1:53 PM,66.9,41.0,39,30.25,10.0,Calm,Calm,-,N/A,,Scattered Clouds,0,2012-11-19 19:53:00
2:53 PM,66.0,41.0,40,30.24,10.0,Calm,Calm,-,N/A,,Scattered Clouds,0,2012-11-19 20:53:00
3:53 PM,64.9,41.0,42,30.21,10.0,Calm,Calm,-,N/A,,Scattered Clouds,0,2012-11-19 21:53:00
4:53 PM,59.0,41.0,51,30.21,10.0,Calm,Calm,-,N/A,,Partly Cloudy,0,2012-11-19 22:53:00
5:53 PM,54.0,41.0,62,30.22,10.0,NNW,3.5,-,N/A,,Clear,340,2012-11-19 23:53:00
6:53 PM,52.0,41.0,66,30.22,10.0,Calm,Calm,-,N/A,,Clear,0,2012-11-20 00:53:00
7:53 PM,46.9,39.9,77,30.23,10.0,Calm,Calm,-,N/A,,Clear,0,2012-11-20 01:53:00
8:53 PM,46.9,39.9,77,30.22,10.0,Calm,Calm,-,N/A,,Partly Cloudy,0,2012-11-20 02:53:00
9:53 PM,44.1,39.0,82,30.22,10.0,Calm,Calm,-,N/A,,Mostly Cloudy,0,2012-11-20 03:53:00
10:53 PM,48.0,42.1,80,30.20,10.0,Calm,Calm,-,N/A,,Mostly Cloudy,0,2012-11-20 04:53:00
11:53 PM,48.0,42.1,80,30.20,10.0,Calm,Calm,-,N/A,,Mostly Cloudy,0,2012-11-20 05:53:00